TimeMST,TemperatureF,Dew PointF,Humidity,Sea Level PressureIn,VisibilityMPH,Wind Direction,Wind SpeedMPH,Gust SpeedMPH,PrecipitationIn,Events,Conditions,WindDirDegrees,DateUTC
12:51 AM,27.0,18.0,69,30.12,10.0,SE,8.1,-,N/A,,Overcast,130,2013-01-14 07:51:00
1:51 AM,26.1,18.0,71,30.13,10.0,SSE,9.2,-,N/A,,Overcast,150,2013-01-14 08:51:00
2:51 AM,26.1,18.0,71,30.15,10.0,South,3.5,-,N/A,,Overcast,170,2013-01-14 09:51:00
3:51 AM,25.0,17.1,72,30.13,10.0,SSE,5.8,-,N/A,,Overcast,160,2013-01-14 10:51:00
4:51 AM,25.0,17.1,72,30.14,10.0,South,6.9,-,N/A,,Overcast,170,2013-01-14 11:51:00
5:51 AM,25.0,17.1,72,30.17,10.0,SE,5.8,-,N/A,,Overcast,130,2013-01-14 12:51:00
6:51 AM,25.0,17.1,72,30.18,10.0,ESE,5.8,-,N/A,,Overcast,120,2013-01-14 13:51:00
7:23 AM,24.8,17.6,74,30.15,10.0,ESE,5.8,-,N/A,,Overcast,120,2013-01-14 14:23:00
8:51 AM,25.0,16.0,69,30.19,10.0,ESE,6.9,-,N/A,,Overcast,110,2013-01-14 15:51:00
9:51 AM,26.1,14.0,60,30.20,10.0,SSE,9.2,-,N/A,,Overcast,150,2013-01-14 16:51:00
10:51 AM,26.1,14.0,60,30.18,10.0,SSE,9.2,-,N/A,,Overcast,160,2013-01-14 17:51:00
11:43 AM,26.6,12.2,55,30.11,10.0,SE,11.5,-,N/A,,Overcast,140,2013-01-14 18:43:00
11:51 AM,26.1,12.0,55,30.14,10.0,SE,10.4,-,N/A,,Overcast,140,2013-01-14 18:51:00
12:51 PM,27.0,12.0,53,30.11,10.0,SE,9.2,-,N/A,,Overcast,140,2013-01-14 19:51:00
1:51 PM,27.0,12.9,56,30.09,10.0,South,12.7,-,N/A,,Overcast,170,2013-01-14 20:51:00
2:41 PM,28.4,12.2,51,30.07,10.0,SSE,8.1,-,N/A,,Overcast,150,2013-01-14 21:41:00
2:51 PM,28.0,12.0,51,30.11,10.0,South,8.1,-,N/A,,Overcast,170,2013-01-14 21:51:00
3:51 PM,28.0,12.9,53,30.12,10.0,SSE,6.9,-,N/A,,Overcast,160,2013-01-14 22:51:00
4:51 PM,28.0,12.9,53,30.13,10.0,SE,6.9,-,N/A,,Overcast,140,2013-01-14 23:51:00
5:51 PM,28.0,12.9,53,30.15,10.0,SE,5.8,-,N/A,,Overcast,130,2013-01-15 00:51:00
6:51 PM,26.1,14.0,60,30.17,10.0,Calm,Calm,-,N/A,,Scattered Clouds,0,2013-01-15 01:51:00
8:51 PM,24.1,14.0,65,30.17,10.0,Calm,Calm,-,N/A,,Clear,0,2013-01-15 03:51:00
9:51 PM,23.0,14.0,68,30.17,10.0,North,4.6,-,N/A,,Clear,350,2013-01-15 04:51:00
10:51 PM,21.0,14.0,74,30.17,10.0,Calm,Calm,-,N/A,,Clear,0,2013-01-15 05:51:00
11:51 PM,19.9,14.0,78,30.17,10.0,North,4.6,-,N/A,,Clear,360,2013-01-15 06:51:00